Other Public Products
Issued by NWS Grand Forks, ND

Home | Current Version | Previous Version | Text Only | Print | Product List | Glossary Off
Versions: 1 2 3 4 5 6 7 8 9 10 11 12 13 14 15 16 17 18 19 20 21 22 23 24 25 26 27 28 29 30 31 32 33 34 35 36 37 38 39 40 41 42 43 44 45 46 47 48 49 50

000
FPUS83 KFGF 271010
OPUFGF
PRAIRIE TO PINES WEATHER ROUNDUP
NATIONAL WEATHER SERVICE EASTERN NORTH DAKOTA/GRAND FORKS ND
500 AM CDT FRI MAY 27 2016

 **SATELLITE DATA USED TO AUGMENT SKY COVER AT AUTOMATED STATIONS**
 *****  WEATHER ACROSS EASTERN NORTH DAKOTA  *****

CITY           SKY/WX    TMP DP  RH WIND       PRES   REMARKS
GRAND FORKS    PTCLDY    52  50  93 N6        29.78S
GRAND FORKS AF PTCLDY    50  50 100 N3        29.79S
GRAND CITY NWS   N/A     54 N/A N/A N2          N/A
BUXTON           N/A     56  55  98 CALM        N/A
DEVILS LAKE    PTCLDY    46  46 100 CALM      29.81F FOG
FARGO          CLEAR     56  53  90 SE9       29.76S
WAHPETON ARPT  SUNNY     55  50  82 CALM      29.79R
$$

 *****  WEATHER ACROSS CENTRAL AND WESTERN NORTH DAKOTA  *****

CITY           SKY/WX    TMP DP  RH WIND       PRES   REMARKS
JAMESTOWN      CLEAR     51  51 100 N14       29.77F FOG
BISMARCK       PTCLDY    48  47  96 NW3       29.83S
MINOT          CLOUDY    56  54  93 CALM      29.83R FOG
MINOT AFB      CLOUDY    54  53  98 W2        29.82S
GARRISON         N/A     52  50  93 NW7       29.83F
WILLISTON      MOCLDY    47  45  93 CALM      29.87S
DICKINSON      CLEAR     40  39  97 NW3       29.83S
HETTINGER      CLEAR     37  35  92 SW5       29.87S
$$

 *****  OTHER OBSERVATIONS NORTHEAST NORTH DAKOTA  *****

CITY           SKY/WX    TMP DP  RH WIND       PRES   REMARKS
WALHALLA       FAIR      50  50 100 CALM      29.79S
LANGDON        CLOUDY    54  54 100 SW6       29.80S
CAVALIER       FAIR      50  50 100 S3        29.80S
GRAFTON        FAIR      52  52 100 CALM      29.80F
CANDO          NOT AVBL
FORT TOTTEN      N/A     49  49 100 CALM      29.95S
ROLLA          CLOUDY    54  54 100 NW6       29.82R
RUGBY          CLOUDY    54  54 100 W3        29.82S
 ***** THE ABOVE OBSERVATIONS ARE NON NWS ARE NOT QUALITY
        CONTROLLED AND MAY MIS-REPORT RAIN FOR SNOW...
$$

 *****  OTHER OBSERVATIONS SOUTHEAST NORTH DAKOTA *****

CITY           SKY/WX    TMP DP  RH WIND       PRES   REMARKS
COOPERSTOWN    NOT AVBL
VALLEY CITY    FAIR      50  50 100 CALM      29.79F
OAKES            N/A    N/A N/A N/A MISG        N/A
GWINNER        FAIR      54  54 100 SE10      29.77R
SHEYENNE NWR     N/A     50  49  96 E5        29.95S
BUFFALO          N/A     54  51  90 NE7         N/A
WYNDMERE         N/A     55  52  88 E2          N/A
 ***** THE ABOVE OBSERVATIONS ARE NON NWS ARE NOT QUALITY
       CONTROLLED AND MAY MIS-REPORT RAIN FOR SNOW...
$$

  *****  WEATHER ACROSS NORTHERN MINNESOTA  *****

CITY           SKY/WX    TMP DP  RH WIND       PRES   REMARKS
FLAG ISLAND    CLOUDY    54  52  94 CALM      29.80R FOG
WARROAD        CLOUDY    54  48  82 SW3       29.81F
ROSEAU         CLOUDY    54  48  82 SW5       29.81F
HALLOCK        FOG       50  48  93 CALM      29.79F VSB 1/2
THF RVR FALLS  PTCLDY    55  52  88 NE5       29.79S
HALSTAD        NOT AVBL
FOSSTON        CLOUDY    54  52  94 E3        29.79F
BAUDETTE       CLOUDY    52  50  93 CALM      29.81F
WASKISH        CLOUDY    59  54  82 CALM      29.82S
CROOKSTON      CLOUDY    55  54  94 CALM      29.79R
$$
  *****  WEATHER ACROSS CENTRAL AND WEST MINNESOTA  *****

CITY           SKY/WX    TMP DP  RH WIND       PRES   REMARKS
BEMIDJI        CLEAR     52  50  93 CALM      29.82F
PARK RAPIDS    CLEAR     55  49  80 N3        29.81S
WADENA         CLEAR     52  48  87 CALM      29.81R
DETROIT LAKES  CLEAR     55  52  88 E6        29.81S
MOORHEAD       CLEAR     55  54  94 E7        29.77S
FERGUS FALLS   CLEAR     59  52  77 E6        29.75S
ELBOW LAKE     FAIR      60  52  74 NE5       29.78F
MORRIS MN      PTCLDY    57  52  82 NE6       29.76F
STAPLES        CLEAR     54  48  82 CALM      29.80S
WHEATON        CLOUDY    57  54  88 CALM      29.79R
$$
  *****  WEATHER ELSEWHERE ACROSS MINNESOTA  *****

CITY           SKY/WX    TMP DP  RH WIND       PRES   REMARKS
DULUTH         CLOUDY    50  47  89 CALM      29.84R
INTRNTL FALLS  PTCLDY    49  47  93 CALM      29.82R
ELY            CLEAR     46  46 100 CALM      29.84S
CLOQUET        CLOUDY    45  43  93 CALM      29.84S
BRAINERD       PTCLDY    56  50  80 SE7       29.81S
HIBBING        CLEAR     41  41 100 NW3       29.82F
ALEXANDRIA     CLEAR     56  49  77 N3        29.80S
SAINT CLOUD    MOCLDY    61  55  81 NE5       29.77F
MINNEAPOLIS    CLOUDY    68  55  63 SE9       29.81S
$$

  *****  WEATHER ACROSS SOUTH DAKOTA  *****

CITY           SKY/WX    TMP DP  RH WIND       PRES   REMARKS
SIOUX FALLS    CLOUDY    56  54  93 CALM      29.75F
BROOKINGS      CLOUDY    57  55  93 E3        29.77F
WATERTOWN      CLOUDY    59  53  80 E6        29.78F
HURON          CLOUDY    56  55  97 E3        29.74F
SISSETON         N/A     55  53  93 NE7       29.77R
ABERDEEN       PTCLDY    58  52  80 N5        29.75S
MITCHELL       CLOUDY    59  58  96 E6        29.74F
PIERRE         CLOUDY    53  50  89 NW14      29.73F
MOBRIDGE       CLOUDY    52  47  83 N6        29.76F
RAPID CITY     CLOUDY    50  44  80 NW6       29.86S
$$

  *****  SOME WEATHER IN NEARBY STATES *****

CITY           SKY/WX    TMP DP  RH WIND       PRES   REMARKS
GLASGOW MT     PTCLDY    48  46  93 NE8       29.87R
GREAT FALLS MT CLEAR     44  41  89 S6        29.87F
CHEYENNE WY    CLOUDY    46  38  73 N16G25    29.89F
SCOTTSBLUFF NE CLOUDY    51  45  79 NW13      29.82F
OMAHA NE       CLOUDY    63  58  83 E10       29.69F
DES MOINES IA  LGT RAIN  64  59  83 N3        29.81R
DAVENPORT IA   CLOUDY    63  60  90 N6        29.81F
CHICAGO IL     CLOUDY    68  64  87 S8        29.90R
EAU CLAIRE WI  CLOUDY    58  56  93 NE6       29.83F
LA CROSSE WI   CLOUDY    65  60  84 E3        29.83R
$$

  *****  SOME NATIONAL WEATHER *****

CITY           SKY/WX    TMP DP  RH WIND       PRES   REMARKS
LA GUARDIA NY  CLOUDY    72  65  78 S6        30.06R
RALEIGH NC     MOCLDY    70  61  73 S6        30.14S
ATLANTA GA     MOCLDY    70  60  70 S6        30.10R
NEW ORLEANS LA MOCLDY    77  71  82 SE7       29.94S
OKLAHOMA CITY  CLOUDY    65  59  81 S3        29.67R
ALBUQUERQUE NM CLEAR     45  21  38 SE7       29.91F
SALT LAKE CITY PTCLDY    56  40  55 NE7       29.96R
LOS ANGELES CA PTCLDY    59  54  83 VRB3      29.96F
BOISE ID       CLEAR     53  40  61 NW7       29.93R
SEATTLE WA     CLOUDY    50  43  77 S12       30.14S
$$

*** WEATHER ACROSS MANITOBA...SASKATCHEWAN AND ONTARIO ***
                ***ONTARIO***

CITY           SKY/WX    TMP DP  RH WIND       PRES   REMARKS
GERALDTON      CLOUDY    54  54 100 SW7       29.85S FOG
THUNDER BAY    FOG       50  50 100 CALM      29.86S VSB 1/4
SIOUX LOOKOUT  PTCLDY    52  52 100 SE3       29.80R
TORONTO        CLOUDY    63  59  88 CALM      29.94R
BIG TROUT LK   CLOUDY    48  48 100 N10G17    29.85R FOG
PICKLE LAKE    NOT AVBL
DRYDEN         CLEAR     55  54  94 SW7       29.80R
KENORA         CLOUDY    55  54  94 SW5       29.80R
$$
                *** MANITOBA***

CITY           SKY/WX    TMP DP  RH WIND       PRES   REMARKS
BRANDON        CLOUDY    55  54  94 NW5       29.80S
DAUPHIN        CLOUDY    52  52 100 W5        29.83R
ISLAND LAKE    CLOUDY    39  39 100 N8G20     29.96R
PILOT MOUND      N/A     54  54 100 SW5         N/A
THE PAS        CLOUDY    41  36  81 NE10G17   30.01R
THOMPSON       DRIZZLE   32  30  93 NE10G17   30.11S FOG     WCI  24
WINNIPEG       CLOUDY    57  57 100 CALM      29.78R
LYNN LAKE      FLURRIES  32  32 100 NE9       30.14S WCI  24
CHURCHILL      FLURRIES  30  28  93 NE10      30.27R WCI  21
GILLAM         LGT SNOW  32  30  93 NE14G21   30.13R WCI  22
$$
                ***SASKATCHEWAN***

CITY           SKY/WX    TMP DP  RH WIND       PRES   REMARKS
ESTEVAN        MOCLDY    50  48  93 NW8       29.84F
KINDERSLEY     PTCLDY    46  43  87 S8        29.85F
LLOYDMINSTER   CLEAR     52  46  82 S12       29.83S
PRINCE ALBERT  MOCLDY    55  48  76 E10       29.90R
REGINA         PTCLDY    48  46  93 NW7       29.86F
YORKTON        CLEAR     50  46  87 N6        29.85S   C1F1C2F2C3F3C4F4C5F5C6F6C7F7C8F8C9F9CaFaCbFbCcFcCdFdCe!


USA.gov is the U.S. government's official web portal to all federal, state and local government web resources and services.